WD8INF-9 Weather Reports


time (UTC)temp
C
wind
direction
speed
KPH
gust
KPH
rain 1hr
cm
rain 24hr
cm
rain mn
cm
humidity
%
barometer
mb
20260508231408 16 0 0.0 0.0 0.00 0.00 0.00 1007.4
20260508230908 16 0 0.0 0.0 0.00 0.00 0.00 1007.6
20260508230408 17 0 0.0 0.0 0.00 0.00 0.00 1007.5
20260508225908 18 0 0.0 0.0 0.00 0.00 0.00 1007.5
20260508225407 18 0 0.0 0.0 0.00 0.00 0.00 1007.1
20260508224907 18 0 0.0 0.0 0.00 0.00 0.00 1007.4
20260508224407 18 0 0.0 0.0 0.00 0.00 0.00 1007.2
20260508223907 18 0 0.0 0.0 0.00 0.00 0.00 1007.5
20260508223406 18 0 0.0 0.0 0.00 0.00 0.00 1007.4
20260508222906 18 0 0.0 0.0 0.00 0.00 0.00 1007.4
20260508222406 19 232 0.0 0.0 0.00 0.00 0.00 1007.3
20260508221905 19 249 0.0 1.6 0.00 0.00 0.00 1007.3
20260508221404 19 0 0.0 0.0 0.00 0.00 0.00 1007.3
20260508220904 19 0 0.0 0.0 0.00 0.00 0.00 1007.3
20260508220404 19 0 0.0 0.0 0.00 0.00 0.00 1007.6
20260508215904 19 0 0.0 0.0 0.00 0.00 0.00 1007.3
20260508215403 20 0 0.0 0.0 0.00 0.00 0.00 1007.5
20260508214903 20 0 0.0 0.0 0.00 0.00 0.00 1007.2
20260508214403 20 0 0.0 0.0 0.00 0.00 0.00 1007.4
20260508213903 20 0 0.0 0.0 0.00 0.00 0.00 1007.4
20260508213402 20 0 0.0 0.0 0.00 0.00 0.00 1007.6
20260508212400 20 257 0.0 1.6 0.00 0.00 0.00 1007.5
20260508211901 20 283 0.0 4.8 0.00 0.00 0.00 1007.5
20260508211358 20 284 0.0 3.2 0.00 0.00 0.00 1007.6
20260508210858 20 293 0.0 4.8 0.00 0.00 0.00 1007.9
20260508210358 20 248 0.0 4.8 0.00 0.00 0.00 1008.1
20260508205858 20 259 0.0 4.8 0.00 0.00 0.00 1007.8
20260508205358 20 256 0.0 4.8 0.00 0.00 0.00 1007.8
20260508204856 20 253 1.6 4.8 0.00 0.00 0.00 1008.3
20260508204356 20 291 0.0 3.2 0.00 0.00 0.00 1008.1
20260508203856 20 0 0.0 0.0 0.00 0.00 0.00 1008.4
20260508203355 21 238 0.0 6.4 0.00 0.00 0.00 1008.4
20260508202855 21 0 0.0 0.0 0.00 0.00 0.00 1008.4
20260508202355 21 0 0.0 0.0 0.00 0.00 0.00 1008.6
20260508201855 20 249 0.0 8.0 0.00 0.00 0.00 1008.5
20260508201355 20 0 0.0 0.0 0.00 0.00 0.00 1008.1
20260508200854 20 215 0.0 6.4 0.00 0.00 0.00 1008.7
20260508200354 20 263 0.0 4.8 0.00 0.00 0.00 1008.4
20260508195854 20 221 3.2 9.7 0.00 0.00 0.00 1008.5
20260508195354 21 204 1.6 6.4 0.00 0.00 0.00 1008.5
20260508194853 21 253 1.6 9.7 0.00 0.00 0.00 1008.7
20260508194353 21 278 1.6 6.4 0.00 0.00 0.00 1008.3
20260508193853 22 262 1.6 8.0 0.00 0.00 0.00 1008.6
20260508193353 22 288 1.6 6.4 0.00 0.00 0.00 1008.8
20260508192852 23 249 1.6 6.4 0.00 0.00 0.00 1008.8
20260508192352 25 264 1.6 8.0 0.00 0.00 0.00 1009.0
20260508191852 26 228 0.0 6.4 0.00 0.00 0.00 1008.7
20260508191351 25 278 0.0 4.8 0.00 0.00 0.00 1009.1
20260508190851 23 249 1.6 8.0 0.00 0.00 0.00 1008.7
20260508190351 23 263 1.6 8.0 0.00 0.00 0.00 1009.1
20260508185850 23 277 1.6 6.4 0.00 0.00 0.00 1009.5
20260508185350 26 283 3.2 11.3 0.00 0.00 0.00 1009.8
20260508184850 29 248 1.6 8.0 0.00 0.00 0.00 1009.4
20260508184350 27 232 1.6 12.9 0.00 0.00 0.00 1009.7
20260508183849 27 242 3.2 12.9 0.00 0.00 0.00 1009.2
20260508183349 26 274 1.6 8.0 0.00 0.00 0.00 1009.6
20260508182849 23 252 3.2 12.9 0.00 0.00 0.00 1009.5
20260508182348 23 262 3.2 11.3 0.00 0.00 0.00 1009.5
20260508181848 24 201 1.6 11.3 0.00 0.00 0.00 1010.0
20260508181348 22 257 1.6 11.3 0.00 0.00 0.00 1010.1
20260508180845 23 298 3.2 8.0 0.00 0.00 0.00 1009.9
20260508180344 22 264 1.6 8.0 0.00 0.00 0.00 1010.1
20260508175843 22 249 0.0 6.4 0.00 0.00 0.00 1010.2
20260508175343 22 242 0.0 4.8 0.00 0.00 0.00 1010.0
20260508174843 20 212 3.2 11.3 0.00 0.00 0.00 1010.6
20260508174341 20 253 1.6 6.4 0.00 0.00 0.00 1010.5
20260508173841 20 262 0.0 6.4 0.00 0.00 0.00 1010.6
20260508173342 21 266 1.6 9.7 0.00 0.00 0.00 1010.4
20260508172841 21 243 0.0 6.4 0.00 0.00 0.00 1010.9
20260508172340 21 307 3.2 12.9 0.00 0.00 0.00 1010.9
20260508171337 22 271 1.6 12.9 0.00 0.00 0.00 1011.2
20260508170837 23 205 3.2 11.3 0.00 0.00 0.00 1010.8
20260508170337 25 248 1.6 8.0 0.00 0.00 0.00 1011.2
20260508165837 26 222 3.2 12.9 0.00 0.00 0.00 1011.2
20260508165336 23 264 1.6 12.9 0.00 0.00 0.00 1011.3
20260508164836 23 253 3.2 9.7 0.00 0.00 0.00 1011.3
20260508164336 23 246 3.2 11.3 0.00 0.00 0.00 1011.5
20260508163836 23 257 3.2 14.5 0.00 0.00 0.00 1011.7
20260508163335 25 269 3.2 8.0 0.00 0.00 0.00 1011.8
20260508162835 25 212 3.2 12.9 0.00 0.00 0.00 1011.4
20260508162333 26 229 1.6 6.4 0.00 0.00 0.00 1011.9
20260508161833 25 245 3.2 11.3 0.00 0.00 0.00 1011.5
20260508161333 26 260 1.6 6.4 0.00 0.00 0.00 1011.9
20260508160833 23 250 1.6 9.7 0.00 0.00 0.00 1011.6
20260508160330 26 266 1.6 14.5 0.00 0.00 0.00 1012.0
20260508155830 24 266 3.2 9.7 0.00 0.00 0.00 1011.9
20260508155329 23 231 3.2 9.7 0.00 0.00 0.00 1012.1
20260508154828 23 291 3.2 9.7 0.00 0.00 0.00 1012.1
20260508154328 23 232 3.2 9.7 0.00 0.00 0.00 1012.4
20260508153828 24 257 1.6 6.4 0.00 0.00 0.00 1012.2
20260508153328 23 214 3.2 9.7 0.00 0.00 0.00 1012.1
20260508152828 25 249 1.6 8.0 0.00 0.00 0.00 1012.6
20260508152327 22 273 3.2 11.3 0.00 0.00 0.00 1012.6
20260508151827 23 228 3.2 9.7 0.00 0.00 0.00 1012.3
20260508151327 23 240 3.2 12.9 0.00 0.00 0.00 1012.1
20260508150827 23 248 3.2 12.9 0.00 0.00 0.00 1012.6
20260508150326 25 239 1.6 9.7 0.00 0.00 0.00 1012.4
20260508145826 23 228 1.6 11.3 0.00 0.00 0.00 1012.4
20260508145326 23 238 1.6 9.7 0.00 0.00 0.00 1012.3
20260508144826 21 248 3.2 11.3 0.00 0.00 0.00 1012.8
20260508144326 21 269 4.8 14.5 0.00 0.00 0.00 1012.5
20260508143825 22 231 4.8 14.5 0.00 0.00 0.00 1012.9
20260508143325 22 277 3.2 11.3 0.00 0.00 0.00 1012.7
20260508142825 23 263 1.6 8.0 0.00 0.00 0.00 1012.8
20260508142325 23 214 1.6 8.0 0.00 0.00 0.00 1013.1
20260508141823 22 248 1.6 8.0 0.00 0.00 0.00 1012.8
20260508141323 21 274 3.2 9.7 0.00 0.00 0.00 1013.0
20260508140822 22 250 1.6 6.4 0.00 0.00 0.00 1013.0
20260508140322 22 259 1.6 8.0 0.00 0.00 0.00 1013.0
20260508135822 22 248 1.6 8.0 0.00 0.00 0.00 1012.8
20260508135321 22 239 1.6 8.0 0.00 0.00 0.00 1013.1
20260508134821 20 267 1.6 8.0 0.00 0.00 0.00 1012.8
20260508134321 22 240 0.0 4.8 0.00 0.00 0.00 1013.2
20260508133821 21 269 1.6 4.8 0.00 0.00 0.00 1012.9
20260508133320 21 195 0.0 6.4 0.00 0.00 0.00 1013.2
20260508132820 18 250 1.6 4.8 0.00 0.00 0.00 1012.7
20260508132320 19 295 1.6 4.8 0.00 0.00 0.00 1013.0
20260508131820 20 259 0.0 3.2 0.00 0.00 0.00 1013.2
20260508131319 19 184 1.6 4.8 0.00 0.00 0.00 1012.7
20260508130819 21 204 1.6 4.8 0.00 0.00 0.00 1013.0
20260508130319 20 239 1.6 4.8 0.00 0.00 0.00 1012.9
20260508125818 20 249 0.0 3.2 0.00 0.00 0.00 1013.1
20260508125317 20 186 0.0 3.2 0.00 0.00 0.00 1012.9
20260508124817 20 207 0.0 0.0 0.00 0.00 0.00 1013.2
20260508124317 18 169 0.0 1.6 0.00 0.00 0.00 1012.9
20260508123817 17 208 0.0 1.6 0.00 0.00 0.00 1013.3
20260508123316 16 267 0.0 1.6 0.00 0.00 0.00 1013.1
20260508122816 13 0 0.0 0.0 0.00 0.00 0.00 1013.4
20260508122316 11 0 0.0 0.0 0.00 0.00 0.00 1012.9
20260508121815 11 0 0.0 0.0 0.00 0.00 0.00 1013.2
20260508121315 11 0 0.0 0.0 0.00 0.00 0.00 1013.1
20260508120815 11 0 0.0 0.0 0.00 0.00 0.00 1013.0
20260508120315 11 0 0.0 0.0 0.00 0.00 0.00 1012.9
20260508115814 12 0 0.0 0.0 0.00 0.00 0.00 1012.7
20260508114814 8 0 0.0 0.0 0.00 0.00 0.00 1012.8
20260508114313 8 0 0.0 0.0 0.00 0.00 0.00 1013.2
20260508113813 8 0 0.0 0.0 0.00 0.00 0.00 1012.8
20260508113313 8 0 0.0 0.0 0.00 0.00 0.00 1012.9
20260508112812 8 0 0.0 0.0 0.00 0.00 0.00 1012.8
20260508112312 7 0 0.0 0.0 0.00 0.00 0.00 1012.7
20260508111812 7 0 0.0 0.0 0.00 0.00 0.00 1012.8
20260508111312 7 0 0.0 0.0 0.00 0.00 0.00 1012.8
20260508110811 7 0 0.0 0.0 0.00 0.00 0.00 1012.6
20260508110311 7 0 0.0 0.0 0.00 0.00 0.00 1012.5
20260508105811 7 0 0.0 0.0 0.00 0.00 0.00 1012.4
20260508105311 7 0 0.0 0.0 0.00 0.00 0.00 1012.3
20260508104308 7 0 0.0 0.0 0.00 0.00 0.00 1012.6
20260508103808 7 0 0.0 0.0 0.00 0.00 0.00 1012.7
20260508103307 7 0 0.0 0.0 0.00 0.00 0.00 1012.4
20260508102807 7 0 0.0 0.0 0.00 0.00 0.00 1012.6
20260508102307 7 0 0.0 0.0 0.00 0.00 0.00 1012.8
20260508101807 6 0 0.0 0.0 0.00 0.00 0.00 1012.6
20260508101306 6 0 0.0 0.0 0.00 0.00 0.00 1012.6
20260508100806 6 0 0.0 0.0 0.00 0.00 0.00 1012.7
20260508100306 6 0 0.0 0.0 0.00 0.00 0.00 1012.7
20260508095806 6 0 0.0 0.0 0.00 0.00 0.00 1012.3
20260508095307 6 0 0.0 0.0 0.00 0.00 0.00 1012.6
20260508094805 6 0 0.0 0.0 0.00 0.00 0.00 1012.8
20260508094305 6 0 0.0 0.0 0.00 0.00 0.00 1012.4
20260508093805 6 0 0.0 0.0 0.00 0.00 0.00 1012.7
20260508093305 6 0 0.0 0.0 0.00 0.00 0.00 1012.8
20260508092802 6 0 0.0 0.0 0.00 0.00 0.00 1012.7
20260508092312 6 0 0.0 0.0 0.00 0.00 0.00 1012.7
20260508091802 6 0 0.0 0.0 0.00 0.00 0.00 1012.7
20260508090801 6 0 0.0 0.0 0.00 0.00 0.00 1012.9
20260508090300 6 0 0.0 0.0 0.00 0.00 0.00 1012.6
20260508085800 6 0 0.0 0.0 0.00 0.00 0.00 1012.7
20260508085300 6 0 0.0 0.0 0.00 0.00 0.00 1012.7
20260508084800 6 0 0.0 0.0 0.00 0.00 0.00 1012.7
20260508084259 5 0 0.0 0.0 0.00 0.00 0.00 1012.7
20260508083759 5 0 0.0 0.0 0.00 0.00 0.00 1012.7
20260508083259 5 0 0.0 0.0 0.00 0.00 0.00 1012.5
20260508082759 5 0 0.0 0.0 0.00 0.00 0.00 1012.5
20260508082259 5 0 0.0 0.0 0.00 0.00 0.00 1012.4
20260508081758 5 0 0.0 0.0 0.00 0.00 0.00 1012.5
20260508081258 5 0 0.0 0.0 0.00 0.00 0.00 1012.5
20260508080758 5 0 0.0 0.0 0.00 0.00 0.00 1012.5
20260508080258 5 0 0.0 0.0 0.00 0.00 0.00 1012.5
20260508075757 5 0 0.0 0.0 0.00 0.00 0.00 1012.8
20260508075257 5 0 0.0 0.0 0.00 0.00 0.00 1012.4
20260508074757 5 0 0.0 0.0 0.00 0.00 0.00 1012.5
20260508074257 5 0 0.0 0.0 0.00 0.00 0.00 1012.5
20260508073756 5 0 0.0 0.0 0.00 0.00 0.00 1012.5
20260508073256 5 0 0.0 0.0 0.00 0.00 0.00 1012.7
20260508072756 5 0 0.0 0.0 0.00 0.00 0.00 1012.5
20260508072256 5 0 0.0 0.0 0.00 0.00 0.00 1012.6
20260508071755 5 0 0.0 0.0 0.00 0.00 0.00 1012.3
20260508071255 5 0 0.0 0.0 0.00 0.00 0.00 1012.5
20260508070755 5 0 0.0 0.0 0.00 0.00 0.00 1012.4
20260508070255 5 0 0.0 0.0 0.00 0.00 0.00 1012.5
20260508065755 5 0 0.0 0.0 0.00 0.00 0.00 1012.7
20260508065254 6 0 0.0 0.0 0.00 0.00 0.00 1013.0
20260508064754 6 0 0.0 0.0 0.00 0.00 0.00 1012.8
20260508064254 6 0 0.0 0.0 0.00 0.00 0.00 1013.0
20260508063754 6 0 0.0 0.0 0.00 0.00 0.00 1013.0
20260508062753 6 0 0.0 0.0 0.00 0.00 0.00 1012.9
20260508062253 6 0 0.0 0.0 0.00 0.00 0.00 1013.2
20260508061753 6 0 0.0 0.0 0.00 0.00 0.00 1013.1
20260508061252 6 0 0.0 0.0 0.00 0.00 0.00 1013.4
20260508060752 6 0 0.0 0.0 0.00 0.00 0.00 1013.0
20260508055752 6 0 0.0 0.0 0.00 0.00 0.00 1013.0
20260508055251 6 0 0.0 0.0 0.00 0.00 0.00 1013.1
20260508054751 6 0 0.0 0.0 0.00 0.00 0.00 1013.2
20260508054251 6 0 0.0 0.0 0.00 0.00 0.00 1013.0
20260508053750 6 0 0.0 0.0 0.00 0.00 0.00 1013.1
20260508053250 6 0 0.0 0.0 0.00 0.00 0.00 1012.7
20260508052750 6 0 0.0 0.0 0.00 0.00 0.00 1013.2
20260508052250 6 0 0.0 0.0 0.00 0.00 0.00 1013.1
20260508051750 6 0 0.0 0.0 0.00 0.00 0.00 1012.9
20260508051248 6 0 0.0 0.0 0.00 0.00 0.00 1013.0
20260508050748 6 0 0.0 0.0 0.00 0.00 0.00 1013.0
20260508050248 7 0 0.0 0.0 0.00 0.00 0.00 1013.1
20260508045748 7 0 0.0 0.0 0.00 0.00 0.00 1013.1
20260508045247 7 0 0.0 0.0 0.00 0.00 0.00 1013.0
20260508044747 7 0 0.0 0.0 0.00 0.00 0.00 1013.0
20260508044247 7 0 0.0 0.0 0.00 0.00 0.00 1013.0
20260508043747 7 0 0.0 0.0 0.00 0.00 0.00 1012.8
20260508043246 7 0 0.0 0.0 0.00 0.00 0.00 1013.0
20260508042746 6 0 0.0 0.0 0.00 0.00 0.00 1012.8
20260508042246 7 0 0.0 0.0 0.00 0.00 0.00 1013.0
20260508041746 7 0 0.0 0.0 0.00 0.00 0.00 1012.9
20260508041245 7 0 0.0 0.0 0.00 0.00 0.00 1012.9
20260508040745 7 0 0.0 0.0 0.00 0.00 0.00 1012.8
20260508040245 7 0 0.0 0.0 0.00 0.00 0.00 1012.9
20260508035745 7 0 0.0 0.0 0.00 0.00 0.00 1012.9
20260508034744 7 0 0.0 0.0 0.00 0.00 0.00 1012.7
20260508034244 7 0 0.0 0.0 0.00 0.00 0.00 1012.9
20260508033744 7 0 0.0 0.0 0.00 0.00 0.00 1012.9
20260508033244 7 0 0.0 0.0 0.00 0.00 0.00 1012.6
20260508032743 7 0 0.0 0.0 0.00 0.00 0.00 1013.0
20260508032243 7 0 0.0 0.0 0.00 0.00 0.00 1013.0
20260508031743 7 0 0.0 0.0 0.00 0.00 0.00 1013.0
20260508031243 8 0 0.0 0.0 0.00 0.00 0.00 1012.6
20260508030742 8 0 0.0 0.0 0.00 0.00 0.00 1012.8
20260508030242 8 0 0.0 0.0 0.00 0.00 0.00 1012.5
20260508025742 8 0 0.0 0.0 0.00 0.00 0.00 1012.5
20260508025241 8 0 0.0 0.0 0.00 0.00 0.00 1012.6
20260508024741 8 0 0.0 0.0 0.00 0.00 0.00 1012.7
20260508024240 8 0 0.0 0.0 0.00 0.00 0.00 1012.6
20260508023740 8 0 0.0 0.0 0.00 0.00 0.00 1012.7
20260508023240 8 0 0.0 0.0 0.00 0.00 0.00 1012.7
20260508022238 8 0 0.0 0.0 0.00 0.00 0.00 1012.5
20260508021738 8 0 0.0 0.0 0.00 0.00 0.00 1012.8
20260508021238 9 0 0.0 0.0 0.00 0.00 0.00 1012.5
20260508020737 9 0 0.0 0.0 0.00 0.00 0.00 1012.5
20260508020237 9 0 0.0 0.0 0.00 0.00 0.00 1012.2
20260508015737 9 0 0.0 0.0 0.00 0.00 0.00 1012.8
20260508015237 9 0 0.0 0.0 0.00 0.00 0.00 1012.4
20260508014736 9 0 0.0 0.0 0.00 0.00 0.00 1012.6
20260508014236 10 0 0.0 0.0 0.00 0.00 0.00 1012.3
20260508013736 10 0 0.0 0.0 0.00 0.00 0.00 1012.8
20260508013236 10 0 0.0 0.0 0.00 0.00 0.00 1012.4
20260508012733 10 0 0.0 0.0 0.00 0.00 0.00 1012.6
20260508012233 10 0 0.0 0.0 0.00 0.00 0.00 1012.4
20260508011733 10 0 0.0 0.0 0.00 0.00 0.00 1012.5
20260508011232 10 0 0.0 0.0 0.00 0.00 0.00 1012.4
20260508010731 11 0 0.0 0.0 0.00 0.00 0.00 1012.2
20260508010231 11 0 0.0 0.0 0.00 0.00 0.00 1012.4
20260508005731 11 0 0.0 0.0 0.00 0.00 0.00 1012.1
20260508005231 11 0 0.0 0.0 0.00 0.00 0.00 1012.3
20260508004730 12 0 0.0 0.0 0.00 0.00 0.00 1012.5
20260508004229 12 0 0.0 0.0 0.00 0.00 0.00 1012.5
20260508003729 12 0 0.0 0.0 0.00 0.00 0.00 1012.2
20260508003232 13 0 0.0 0.0 0.00 0.00 0.00 1012.2
20260508002725 13 0 0.0 0.0 0.00 0.00 0.00 1011.8
20260508002225 13 0 0.0 0.0 0.00 0.00 0.00 1012.3
20260508001724 13 0 0.0 0.0 0.00 0.00 0.00 1011.9
20260508001224 13 0 0.0 0.0 0.00 0.00 0.00 1012.2
20260508000724 14 0 0.0 0.0 0.00 0.00 0.00 1012.1
20260508000224 14 248 0.0 3.2 0.00 0.00 0.00 1012.1
20260507235724 14 0 0.0 0.0 0.00 0.00 0.00 1012.1
20260507235223 14 0 0.0 0.0 0.00 0.00 0.00 1012.0
20260507234723 14 0 0.0 0.0 0.00 0.00 0.00 1011.9
20260507234223 15 0 0.0 0.0 0.00 0.00 0.00 1012.0
20260507233723 15 236 0.0 1.6 0.00 0.00 0.00 1012.2
20260507233222 15 263 0.0 3.2 0.00 0.00 0.00 1012.0
20260507232721 15 177 0.0 1.6 0.00 0.00 0.00 1012.0
20260507232221 16 0 0.0 0.0 0.00 0.00 0.00 1011.9
20260507231720 16 0 0.0 0.0 0.00 0.00 0.00 1012.0